Terminal Aerodrome Forecast
Issued by NWS

Home | Current Version | Previous Version | Text Only | Print | Product List | Glossary On
Versions: 1 2 3 4 5 6 7 8 9 10 11 12 13 14 15 16 17 18 19 20 21 22 23 24 25 26 27 28 29 30 31 32 33
457
FTUS43 KABR 110526
TAFMBG
TAF
KMBG 110526Z 1106/1206 10009KT 2SM -SN OVC018
      TEMPO 1106/1108 3/4SM -SN VV010
     FM110800 04008KT 4SM -SN OVC025
     FM110900 03007KT P6SM OVC025
     FM111400 33007KT P6SM BKN025=

USA.gov is the U.S. government's official web portal to all federal, state and local government web resources and services.